Find Starlink 4363

NORAD ID: 53220 Int'l Des: 2022-084 Owner: SPXS Country: US Constellation: starlink operational
LEOCIRCULARRETROGRADESSO

实时位置

正在加载3D地球...

关于 Starlink 4363

正在加载描述...

即将过境

Passes for default location (London). Set your location on the main map for personalized predictions.

高度历史

Loading altitude history...

两行轨道根数

1 53220U 22084AH 26105.14957722 .00000290 00000-0 24282-4 0 9992
2 53220 97.6032 166.0072 0001437 92.1951 267.9440 15.05647026205314
Epoch: Apr 15, 2026 • Age: 7 hours

当前状态

高度 560.8 km
速度 7.59 km/s
星下点 70.47°N, 146.4°E
发射日期 Jul 22, 2022
运行时间 3.7 years
类型 internet

技术详情

分类 Payload
质量 297.00 kg
干质量 275.00 kg
总质量 297.00 kg
长度 0.20 m
直径 2.80 m
跨度 9.00 m
形状 Box + pan
制造商 SPXS
平台类型 Starlink
阶段状态 In Orbit
所有者/国家 SPXS/US

Most Searched